Weather in Kotelnich

Russia / Kirov Oblast     58˚18′12″N   48˚20′51″E
temp.,
°C
wind,
m/s
gust,
m/s
humid.,
%
clouds,
%
prec.,
mm/h
press.,
hPa
HPBL,
m
17 january, sun
sun1700:00−13˚n4895100 1.4 997542
03:00−15˚n4994100 2.0 999530
06:00−16˚n4894100 0.3 1000480
09:00−19˚nnw499499 0.3 1003337
12:00−20˚nnw369376 0.0 1007306
15:00−22˚nw249548 0.0 101089
18:00−24˚nnw22960 0.0 101322
21:00−25˚nw11963 0.0 101620
18 january, mon
mon1800:00−25˚sw119633 0.0 101720
03:00−25˚sw239619 0.0 101733
06:00−25˚sw239870 0.0 101726
09:00−25˚ssw359861 0.0 1018121
12:00−20˚sw359546 0.0 1018226
15:00−21˚sw129745 0.0 101820
18:00−23˚ssw23976 0.0 101842
21:00−23˚sw229842 0.0 101820
19 january, tue
tue1900:00−23˚ssw129895 0.1 101920
03:00−24˚se1110082 0.1 101820
06:00−24˚sse129987 0.0 101820
09:00−23˚ene119992 0.1 101820
12:00−20˚ene119688 0.0 1017124
15:00−22˚nne229891 0.1 101621
18:00−23˚ne229976 0.0 101520
21:00−24˚nne129973 0.0 101520
20 january, wed
wed2000:00−24˚nne229983 0.0 101426
03:00−24˚n239882 0.0 101426
06:00−24˚n239985 0.0 101331
09:00−24˚nnw229880 0.1 101323
12:00−20˚nw129692 0.1 1013182
15:00−18˚w239792 0.1 1012140
18:00−19˚w249884 0.1 101293
21:00−17˚wsw259792 0.3 1013116
21 january, thu
thu2100:00−16˚w259698 0.1 1013144
03:00−17˚w359892 0.2 1013100
06:00−16˚w269692 0.1 1013188
09:00−17˚w269796 0.1 1014187
12:00−14˚wnw369498 0.1 1015307
15:00−15˚wnw229699 0.1 101444
18:00−15˚nw129799 0.1 101528
21:00−16˚nne119796 0.3 101620